GEFSMA_prec_meanprecacc_270.txt.gz
Total_Precipitation_Accumulation
2.30 2.36 2.32 2.37 2.32 2.34 2.32 2.04 1.77 1.85 1.96 1.91 1.67 1.62 1.71 1.69 1.74 1.92 2.12 2.06 1.97 2.12 2.42 2.62 2.71 2.68 2.60 2.57 2.54 2.54 2.51 2.48 2.45 2.32 2.06 1.85 1.75 1.72 1.74 1.77 1.77 1.73 1.66
2.60 2.62 2.58 2.55 2.53 2.62 2.58 2.33 2.15 2.28 2.24 2.18 1.95 1.83 1.82 1.87 1.87 1.98 2.12 2.08 1.85 1.79 2.06 2.45 2.69 2.83 2.89 2.88 2.73 2.57 2.55 2.50 2.52 2.41 2.21 2.00 1.87 1.80 1.75 1.75 1.78 1.77 1.72
2.85 2.92 2.96 2.81 2.66 2.67 2.72 2.65 2.53 2.49 2.43 2.23 2.10 2.08 2.03 1.88 1.83 2.02 2.13 2.11 1.99 1.90 2.00 2.15 2.35 2.61 2.98 3.14 3.02 2.88 2.77 2.71 2.61 2.50 2.39 2.21 2.04 1.90 1.80 1.77 1.77 1.74 1.72
2.86 3.10 3.15 2.90 2.72 2.66 2.82 2.93 2.80 2.71 2.67 2.59 2.35 2.12 2.05 2.01 1.92 1.95 1.96 2.02 2.15 2.06 2.10 2.07 2.14 2.33 2.63 2.91 3.09 3.13 3.04 2.91 2.80 2.71 2.62 2.44 2.30 2.09 1.91 1.85 1.81 1.76 1.73
2.98 3.18 3.28 3.23 2.96 2.93 3.02 2.91 3.09 2.94 2.91 2.73 2.39 2.21 1.99 1.85 1.87 1.85 1.90 1.91 1.93 1.98 2.03 2.05 2.09 2.17 2.37 2.62 2.81 3.01 3.06 3.02 2.84 2.65 2.63 2.64 2.48 2.25 2.08 2.03 1.94 1.84 1.78
3.12 3.31 3.34 3.40 3.26 3.28 3.41 3.36 3.36 3.16 2.91 2.74 2.38 2.18 1.94 1.70 1.66 1.69 1.69 1.69 1.66 1.67 1.77 1.83 1.96 1.97 2.10 2.28 2.59 2.89 3.20 3.29 3.10 2.87 2.76 2.68 2.52 2.27 2.12 2.12 2.08 2.01 1.93
3.68 3.85 3.74 3.67 3.47 3.41 3.47 3.44 3.29 3.18 3.03 2.96 2.82 2.47 2.02 1.63 1.48 1.42 1.49 1.53 1.49 1.48 1.58 1.72 1.75 1.78 1.85 1.92 2.07 2.41 2.86 3.21 3.23 3.07 2.95 2.82 2.63 2.43 2.29 2.24 2.23 2.18 2.10
4.33 4.24 4.14 3.91 3.68 3.49 3.32 3.24 3.16 3.06 2.88 2.86 2.85 2.75 2.37 2.02 1.60 1.30 1.41 1.46 1.46 1.55 1.55 1.50 1.49 1.51 1.50 1.63 1.78 2.05 2.39 2.64 2.91 3.13 3.09 2.90 2.74 2.62 2.54 2.45 2.41 2.37 2.32
4.23 4.08 3.99 3.81 3.65 3.49 3.27 3.24 3.19 3.10 2.96 2.92 2.94 3.01 2.79 2.30 1.81 1.49 1.37 1.38 1.47 1.57 1.58 1.51 1.42 1.41 1.45 1.54 1.62 1.83 2.09 2.17 2.37 2.66 2.89 2.83 2.73 2.75 2.75 2.74 2.70 2.66 2.61
3.96 3.80 3.81 3.71 3.54 3.36 3.19 2.98 2.94 3.01 3.08 2.93 2.82 2.63 2.49 2.25 2.10 1.81 1.56 1.47 1.45 1.48 1.50 1.46 1.39 1.41 1.49 1.62 1.77 1.81 1.87 1.86 1.94 2.09 2.24 2.40 2.47 2.58 2.69 2.67 2.72 2.80 2.84
3.65 3.44 3.40 3.30 3.11 2.93 2.79 2.66 2.59 2.66 2.75 2.74 2.71 2.60 2.48 2.31 2.10 1.96 1.76 1.62 1.57 1.48 1.43 1.45 1.43 1.46 1.52 1.58 1.65 1.70 1.75 1.70 1.74 1.80 1.85 1.99 2.13 2.29 2.45 2.58 2.70 2.85 2.99
3.42 3.14 2.85 2.76 2.71 2.52 2.28 2.22 2.22 2.22 2.29 2.38 2.48 2.43 2.27 2.16 2.06 2.03 1.92 1.76 1.70 1.59 1.53 1.51 1.45 1.43 1.50 1.47 1.42 1.57 1.52 1.51 1.55 1.62 1.67 1.73 1.77 1.86 2.03 2.25 2.53 2.74 2.90
2.95 2.69 2.47 2.34 2.26 2.20 2.07 1.99 1.98 1.86 1.85 1.92 1.96 2.09 2.09 1.97 1.87 1.92 2.02 1.96 1.80 1.63 1.53 1.46 1.32 1.27 1.30 1.40 1.49 1.50 1.35 1.30 1.26 1.27 1.34 1.49 1.59 1.64 1.64 1.78 1.99 2.27 2.50
2.45 2.22 2.13 1.98 1.77 1.62 1.56 1.59 1.63 1.62 1.61 1.63 1.62 1.77 1.86 1.86 1.83 1.83 1.87 2.06 2.01 1.77 1.62 1.46 1.32 1.26 1.27 1.32 1.43 1.31 1.24 1.19 1.11 1.14 1.17 1.25 1.36 1.52 1.53 1.48 1.48 1.59 1.78
1.90 1.78 1.71 1.70 1.59 1.46 1.38 1.35 1.37 1.46 1.46 1.44 1.45 1.54 1.60 1.59 1.60 1.66 1.74 1.89 2.05 1.95 1.75 1.52 1.49 1.43 1.41 1.39 1.47 1.28 1.28 1.22 1.16 1.22 1.24 1.27 1.34 1.49 1.55 1.45 1.35 1.28 1.28
1.61 1.47 1.39 1.39 1.40 1.37 1.35 1.39 1.38 1.40 1.44 1.36 1.32 1.30 1.31 1.29 1.34 1.39 1.50 1.62 1.78 1.90 1.78 1.45 1.40 1.47 1.48 1.37 1.52 1.38 1.33 1.27 1.21 1.41 1.56 1.51 1.48 1.66 1.80 1.75 1.56 1.42 1.36
1.39 1.31 1.23 1.18 1.18 1.23 1.24 1.27 1.24 1.19 1.14 1.11 1.08 1.08 1.10 1.16 1.24 1.25 1.28 1.43 1.64 1.82 1.84 1.50 1.37 1.45 1.59 1.55 1.55 1.49 1.39 1.34 1.37 1.74 1.93 2.13 1.89 1.79 1.90 1.89 1.78 1.58 1.43
1.21 1.17 1.07 1.01 0.98 0.98 0.98 1.00 1.02 1.02 1.02 0.96 0.99 1.05 1.05 1.08 1.13 1.20 1.26 1.34 1.48 1.70 1.86 1.74 1.52 1.53 1.59 1.60 1.64 1.62 1.41 1.26 1.31 1.75 2.04 2.34 2.30 2.06 2.08 1.92 1.77 1.59 1.47
1.09 1.03 0.99 0.99 0.92 0.90 0.86 0.85 0.88 0.93 0.94 0.89 0.93 0.99 1.05 1.16 1.15 1.17 1.24 1.29 1.40 1.53 1.81 1.85 1.66 1.63 1.69 1.74 1.86 1.72 1.54 1.50 1.25 1.50 1.91 2.25 2.41 2.43 2.50 2.36 2.05 1.70 1.48
1.06 1.01 0.99 0.93 0.88 0.84 0.83 0.82 0.83 0.86 0.87 0.87 0.92 0.98 1.02 1.15 1.23 1.26 1.26 1.30 1.36 1.50 1.69 1.85 1.79 1.75 1.80 1.88 1.92 1.86 1.73 1.58 1.42 1.34 1.77 2.24 2.57 2.60 2.76 2.84 2.54 2.07 1.67
0.99 0.98 0.97 0.92 0.87 0.82 0.78 0.77 0.77 0.79 0.87 0.89 0.87 0.89 0.92 1.04 1.14 1.13 1.06 1.10 1.27 1.50 1.59 1.77 1.81 1.78 1.77 1.90 1.87 1.67 1.61 1.54 1.38 1.30 1.52 1.91 2.60 2.92 2.95 2.99 2.86 2.35 1.88
0.99 0.97 0.96 0.92 0.85 0.72 0.74 0.75 0.73 0.77 0.82 0.85 0.84 0.83 0.80 0.80 0.80 0.82 0.87 0.93 1.08 1.35 1.67 1.88 1.83 1.77 1.65 1.65 1.71 1.65 1.65 1.66 1.58 1.28 1.26 1.53 2.12 2.91 3.15 3.08 2.96 2.35 1.80
0.95 0.90 0.87 0.87 0.83 0.76 0.72 0.66 0.68 0.75 0.84 0.89 0.91 0.89 0.71 0.62 0.73 0.79 0.85 0.89 1.02 1.20 1.50 1.85 1.93 1.71 1.66 1.63 1.70 1.69 1.74 1.79 1.66 1.33 1.35 1.60 1.96 2.65 2.84 2.82 2.71 2.06 1.62
0.92 0.92 0.89 0.88 0.87 0.75 0.69 0.63 0.65 0.72 0.82 0.84 0.85 0.87 0.88 0.82 0.78 0.87 0.94 1.01 1.13 1.25 1.37 1.49 1.78 1.60 1.41 1.43 1.53 1.59 1.69 1.69 1.59 1.40 1.43 1.71 1.96 2.42 2.42 2.50 2.39 1.89 1.51
0.87 0.82 0.82 0.85 0.89 0.85 0.74 0.66 0.63 0.69 0.77 0.78 0.75 0.74 0.74 0.77 0.85 1.02 1.15 1.34 1.45 1.55 1.46 1.62 1.79 1.74 1.60 1.54 1.43 1.50 1.73 1.77 1.67 1.50 1.49 1.73 1.89 1.99 2.12 2.21 1.99 1.77 1.49
0.85 0.79 0.77 0.80 0.84 0.80 0.67 0.57 0.56 0.62 0.73 0.76 0.79 0.77 0.70 0.66 0.78 0.96 1.21 1.50 1.65 1.71 1.58 1.69 1.96 2.01 1.84 1.84 1.81 1.70 1.82 1.86 1.78 1.70 1.47 1.57 1.76 1.76 1.98 1.94 1.78 1.64 1.56

GEFSMA_prec_meanprecacc_276.txt.gz
Total_Precipitation_Accumulation
2.41 2.46 2.44 2.46 2.38 2.38 2.36 2.08 1.81 1.89 2.00 1.95 1.70 1.64 1.73 1.73 1.80 1.98 2.19 2.11 2.01 2.15 2.46 2.67 2.80 2.78 2.70 2.66 2.64 2.64 2.59 2.61 2.59 2.44 2.15 1.95 1.83 1.79 1.80 1.86 1.87 1.82 1.73
2.73 2.73 2.68 2.62 2.58 2.66 2.61 2.37 2.18 2.32 2.29 2.22 1.97 1.85 1.84 1.89 1.90 2.02 2.16 2.13 1.90 1.83 2.09 2.49 2.74 2.89 2.95 2.96 2.81 2.66 2.66 2.67 2.69 2.53 2.31 2.10 1.97 1.88 1.83 1.84 1.87 1.86 1.79
2.98 3.03 3.03 2.87 2.71 2.70 2.75 2.69 2.56 2.53 2.47 2.27 2.14 2.12 2.07 1.92 1.86 2.05 2.16 2.15 2.04 1.95 2.04 2.20 2.39 2.66 3.05 3.21 3.09 2.94 2.84 2.84 2.76 2.61 2.50 2.30 2.12 1.98 1.89 1.85 1.84 1.81 1.77
2.98 3.20 3.22 2.96 2.77 2.70 2.85 2.97 2.85 2.76 2.72 2.64 2.39 2.16 2.09 2.05 1.95 1.99 2.00 2.06 2.20 2.11 2.16 2.12 2.18 2.37 2.68 2.96 3.16 3.20 3.11 3.01 2.92 2.80 2.70 2.52 2.38 2.17 2.00 1.94 1.89 1.82 1.78
3.09 3.27 3.35 3.28 3.01 2.97 3.07 2.96 3.14 3.00 2.96 2.78 2.43 2.25 2.03 1.88 1.90 1.88 1.94 1.95 1.98 2.02 2.08 2.08 2.14 2.22 2.41 2.67 2.87 3.07 3.12 3.10 2.92 2.73 2.70 2.70 2.54 2.31 2.16 2.09 2.00 1.89 1.83
3.22 3.40 3.41 3.45 3.31 3.33 3.47 3.41 3.41 3.21 2.96 2.79 2.41 2.21 1.97 1.73 1.69 1.73 1.72 1.73 1.70 1.70 1.81 1.87 2.02 2.02 2.15 2.33 2.64 2.93 3.24 3.34 3.16 2.94 2.83 2.75 2.58 2.32 2.16 2.16 2.12 2.05 1.97
3.79 3.94 3.79 3.72 3.50 3.45 3.52 3.49 3.34 3.24 3.07 3.00 2.86 2.52 2.06 1.67 1.51 1.46 1.53 1.58 1.53 1.52 1.63 1.77 1.81 1.83 1.90 1.96 2.11 2.45 2.91 3.25 3.27 3.12 3.02 2.90 2.69 2.48 2.33 2.28 2.26 2.22 2.14
4.42 4.31 4.18 3.94 3.71 3.53 3.35 3.28 3.21 3.10 2.91 2.91 2.90 2.80 2.41 2.07 1.65 1.33 1.45 1.50 1.50 1.58 1.60 1.55 1.54 1.55 1.53 1.66 1.82 2.10 2.45 2.69 2.96 3.18 3.15 2.96 2.79 2.67 2.58 2.49 2.44 2.41 2.36
4.29 4.13 4.03 3.84 3.69 3.52 3.31 3.27 3.22 3.14 3.00 2.97 2.98 3.06 2.83 2.35 1.87 1.54 1.42 1.42 1.51 1.60 1.61 1.55 1.46 1.45 1.48 1.56 1.65 1.87 2.14 2.22 2.42 2.70 2.94 2.88 2.79 2.81 2.80 2.79 2.74 2.70 2.65
4.03 3.85 3.84 3.75 3.57 3.38 3.22 3.00 2.96 3.04 3.12 2.97 2.86 2.66 2.52 2.29 2.15 1.88 1.63 1.52 1.49 1.51 1.52 1.49 1.42 1.45 1.52 1.65 1.80 1.84 1.91 1.90 1.99 2.14 2.29 2.45 2.53 2.63 2.74 2.72 2.78 2.87 2.90
3.73 3.48 3.43 3.33 3.14 2.96 2.83 2.69 2.62 2.69 2.79 2.78 2.74 2.62 2.51 2.34 2.14 2.01 1.82 1.67 1.61 1.51 1.46 1.47 1.46 1.48 1.54 1.61 1.69 1.74 1.79 1.75 1.81 1.84 1.88 2.02 2.18 2.34 2.50 2.62 2.74 2.90 3.08
3.50 3.19 2.89 2.80 2.75 2.56 2.32 2.28 2.28 2.27 2.34 2.44 2.52 2.46 2.30 2.20 2.10 2.09 1.98 1.82 1.75 1.63 1.55 1.53 1.47 1.45 1.52 1.49 1.44 1.60 1.56 1.54 1.60 1.66 1.69 1.74 1.80 1.90 2.07 2.28 2.56 2.77 2.93
3.02 2.75 2.52 2.39 2.32 2.24 2.11 2.03 2.01 1.88 1.89 1.97 2.00 2.13 2.12 2.02 1.91 1.96 2.06 2.01 1.84 1.67 1.56 1.48 1.33 1.29 1.34 1.41 1.50 1.51 1.38 1.33 1.28 1.29 1.36 1.51 1.60 1.66 1.67 1.81 2.03 2.30 2.52
2.52 2.28 2.17 2.03 1.82 1.66 1.59 1.62 1.66 1.65 1.64 1.66 1.65 1.81 1.90 1.89 1.86 1.86 1.90 2.09 2.04 1.80 1.64 1.48 1.33 1.27 1.30 1.33 1.44 1.32 1.26 1.22 1.14 1.15 1.18 1.26 1.37 1.53 1.55 1.52 1.52 1.62 1.80
1.95 1.82 1.74 1.73 1.63 1.50 1.41 1.37 1.40 1.49 1.50 1.47 1.47 1.56 1.63 1.61 1.62 1.68 1.75 1.91 2.08 1.98 1.77 1.54 1.51 1.45 1.42 1.40 1.49 1.30 1.30 1.24 1.18 1.23 1.25 1.28 1.34 1.50 1.56 1.47 1.38 1.31 1.30
1.65 1.51 1.42 1.41 1.43 1.40 1.38 1.43 1.41 1.43 1.48 1.40 1.34 1.32 1.33 1.30 1.35 1.40 1.51 1.63 1.79 1.92 1.81 1.47 1.42 1.48 1.50 1.39 1.54 1.39 1.34 1.29 1.23 1.42 1.58 1.52 1.49 1.66 1.80 1.76 1.57 1.43 1.38
1.43 1.34 1.26 1.20 1.20 1.25 1.26 1.30 1.27 1.23 1.18 1.14 1.11 1.10 1.12 1.17 1.26 1.26 1.29 1.44 1.65 1.83 1.87 1.52 1.39 1.47 1.61 1.57 1.57 1.51 1.41 1.36 1.40 1.75 1.95 2.14 1.90 1.80 1.91 1.89 1.79 1.58 1.44
1.25 1.21 1.10 1.03 1.00 1.00 1.00 1.02 1.05 1.05 1.05 1.00 1.02 1.07 1.07 1.09 1.16 1.21 1.27 1.35 1.49 1.72 1.88 1.77 1.54 1.55 1.62 1.63 1.67 1.64 1.43 1.28 1.33 1.78 2.06 2.36 2.32 2.08 2.09 1.93 1.77 1.60 1.48
1.12 1.06 1.02 1.01 0.94 0.92 0.89 0.87 0.90 0.97 0.96 0.92 0.95 1.01 1.06 1.18 1.18 1.19 1.26 1.31 1.41 1.54 1.83 1.88 1.68 1.65 1.72 1.77 1.88 1.75 1.57 1.52 1.26 1.51 1.93 2.27 2.43 2.46 2.52 2.38 2.06 1.71 1.49
1.08 1.03 1.01 0.95 0.91 0.87 0.85 0.83 0.84 0.89 0.90 0.89 0.94 0.99 1.04 1.17 1.25 1.28 1.29 1.33 1.39 1.52 1.71 1.87 1.82 1.77 1.83 1.91 1.94 1.89 1.76 1.61 1.44 1.35 1.78 2.25 2.59 2.62 2.79 2.86 2.56 2.09 1.69
1.00 1.00 0.99 0.94 0.89 0.84 0.80 0.78 0.78 0.81 0.90 0.92 0.90 0.90 0.93 1.05 1.15 1.15 1.07 1.12 1.29 1.52 1.60 1.78 1.82 1.80 1.81 1.93 1.89 1.69 1.64 1.58 1.42 1.33 1.54 1.92 2.61 2.93 2.97 3.01 2.88 2.36 1.89
1.00 0.98 0.97 0.93 0.86 0.73 0.76 0.77 0.75 0.80 0.85 0.88 0.86 0.86 0.81 0.81 0.81 0.83 0.88 0.94 1.09 1.37 1.70 1.90 1.85 1.79 1.69 1.67 1.73 1.67 1.67 1.69 1.61 1.31 1.29 1.55 2.14 2.92 3.16 3.09 2.98 2.36 1.81
0.97 0.91 0.88 0.90 0.86 0.78 0.73 0.68 0.71 0.78 0.86 0.91 0.94 0.91 0.73 0.63 0.74 0.80 0.85 0.90 1.03 1.21 1.52 1.88 1.95 1.73 1.68 1.65 1.72 1.71 1.76 1.82 1.69 1.36 1.40 1.65 1.99 2.68 2.86 2.84 2.73 2.08 1.64
0.95 0.95 0.92 0.93 0.92 0.79 0.71 0.65 0.68 0.74 0.84 0.87 0.88 0.91 0.91 0.84 0.80 0.89 0.95 1.02 1.14 1.26 1.38 1.51 1.81 1.62 1.43 1.45 1.56 1.63 1.73 1.75 1.65 1.46 1.48 1.76 2.00 2.45 2.45 2.52 2.41 1.91 1.53
0.92 0.88 0.88 0.90 0.97 0.89 0.77 0.68 0.65 0.71 0.80 0.81 0.77 0.77 0.77 0.80 0.88 1.06 1.17 1.35 1.46 1.56 1.48 1.64 1.82 1.76 1.62 1.56 1.45 1.53 1.78 1.82 1.73 1.56 1.56 1.81 1.95 2.04 2.15 2.24 2.00 1.79 1.50
0.86 0.82 0.79 0.83 0.87 0.83 0.69 0.59 0.56 0.62 0.75 0.79 0.81 0.79 0.73 0.68 0.81 0.99 1.23 1.52 1.67 1.73 1.60 1.71 1.98 2.02 1.85 1.85 1.84 1.73 1.86 1.91 1.83 1.76 1.54 1.64 1.81 1.80 2.01 1.96 1.79 1.65 1.57

GEFSMA_prec_meanprecacc_282.txt.gz
Total_Precipitation_Accumulation
2.52 2.59 2.58 2.61 2.49 2.48 2.45 2.15 1.86 1.95 2.04 1.99 1.75 1.70 1.77 1.75 1.81 2.01 2.24 2.16 2.05 2.19 2.49 2.70 2.85 2.87 2.81 2.77 2.76 2.77 2.73 2.72 2.70 2.55 2.28 2.07 1.93 1.87 1.87 1.93 1.95 1.90 1.83
2.83 2.85 2.85 2.79 2.68 2.73 2.68 2.42 2.23 2.36 2.33 2.26 2.01 1.90 1.89 1.92 1.91 2.03 2.20 2.19 1.93 1.86 2.11 2.51 2.78 2.97 3.06 3.07 2.92 2.77 2.76 2.75 2.78 2.62 2.41 2.21 2.06 1.96 1.89 1.90 1.95 1.93 1.87
3.06 3.12 3.18 3.03 2.80 2.76 2.80 2.74 2.62 2.59 2.51 2.31 2.18 2.16 2.12 1.97 1.90 2.09 2.20 2.21 2.08 1.98 2.07 2.22 2.42 2.72 3.13 3.31 3.20 3.04 2.94 2.92 2.84 2.69 2.57 2.39 2.22 2.07 1.96 1.92 1.91 1.89 1.86
3.05 3.29 3.34 3.12 2.88 2.77 2.91 3.03 2.91 2.83 2.79 2.71 2.45 2.21 2.14 2.11 2.00 2.03 2.04 2.11 2.24 2.15 2.20 2.14 2.20 2.41 2.74 3.04 3.26 3.30 3.19 3.10 3.00 2.86 2.75 2.58 2.45 2.24 2.08 2.02 1.96 1.89 1.86
3.17 3.37 3.46 3.42 3.12 3.05 3.14 3.03 3.22 3.07 3.04 2.85 2.49 2.30 2.07 1.92 1.94 1.92 1.98 1.99 2.03 2.06 2.10 2.11 2.17 2.26 2.47 2.74 2.96 3.15 3.22 3.20 3.01 2.79 2.76 2.76 2.59 2.37 2.23 2.15 2.05 1.95 1.88
3.30 3.48 3.51 3.57 3.43 3.43 3.57 3.50 3.49 3.30 3.05 2.87 2.47 2.27 2.03 1.78 1.74 1.77 1.76 1.77 1.76 1.74 1.84 1.91 2.06 2.07 2.21 2.39 2.71 3.00 3.35 3.45 3.25 3.01 2.89 2.81 2.63 2.37 2.21 2.19 2.15 2.08 2.00
3.86 4.02 3.88 3.82 3.61 3.55 3.60 3.56 3.42 3.32 3.16 3.09 2.96 2.59 2.14 1.74 1.60 1.53 1.59 1.65 1.60 1.57 1.68 1.82 1.86 1.88 1.95 2.01 2.17 2.51 3.00 3.37 3.36 3.21 3.10 2.96 2.75 2.55 2.37 2.31 2.28 2.24 2.16
4.49 4.37 4.27 4.02 3.80 3.63 3.45 3.37 3.29 3.18 2.98 2.98 2.99 2.89 2.50 2.15 1.74 1.39 1.52 1.58 1.57 1.64 1.65 1.60 1.61 1.62 1.60 1.72 1.86 2.14 2.49 2.74 3.04 3.27 3.25 3.04 2.86 2.73 2.62 2.52 2.47 2.43 2.38
4.37 4.20 4.09 3.91 3.78 3.60 3.40 3.34 3.29 3.21 3.07 3.04 3.05 3.14 2.92 2.43 1.96 1.63 1.50 1.51 1.58 1.66 1.66 1.60 1.53 1.52 1.54 1.63 1.69 1.90 2.17 2.26 2.48 2.79 3.02 2.95 2.86 2.88 2.84 2.82 2.77 2.73 2.68
4.09 3.92 3.91 3.81 3.64 3.45 3.30 3.06 3.00 3.09 3.20 3.04 2.94 2.74 2.58 2.35 2.23 1.97 1.73 1.60 1.56 1.58 1.59 1.54 1.46 1.51 1.57 1.70 1.84 1.88 1.94 1.94 2.04 2.20 2.36 2.50 2.58 2.68 2.79 2.76 2.81 2.91 2.94
3.80 3.56 3.51 3.42 3.22 3.04 2.91 2.76 2.69 2.76 2.87 2.86 2.82 2.69 2.58 2.42 2.21 2.09 1.92 1.75 1.69 1.59 1.53 1.53 1.52 1.55 1.60 1.65 1.71 1.76 1.82 1.78 1.85 1.89 1.94 2.07 2.24 2.39 2.55 2.66 2.78 2.94 3.12
3.59 3.29 2.99 2.92 2.86 2.66 2.41 2.34 2.35 2.34 2.43 2.51 2.59 2.52 2.37 2.29 2.19 2.17 2.06 1.91 1.84 1.71 1.63 1.60 1.53 1.50 1.56 1.53 1.46 1.61 1.57 1.56 1.62 1.70 1.74 1.79 1.87 1.97 2.13 2.32 2.60 2.82 2.98
3.12 2.85 2.60 2.48 2.41 2.33 2.18 2.09 2.08 1.95 1.95 2.02 2.05 2.17 2.18 2.08 1.96 2.02 2.14 2.07 1.90 1.73 1.64 1.56 1.39 1.34 1.37 1.44 1.52 1.52 1.39 1.34 1.30 1.31 1.38 1.53 1.65 1.72 1.75 1.87 2.07 2.35 2.57
2.61 2.37 2.26 2.10 1.89 1.73 1.66 1.69 1.73 1.71 1.70 1.71 1.69 1.86 1.96 1.94 1.91 1.90 1.95 2.14 2.11 1.86 1.70 1.54 1.38 1.31 1.34 1.36 1.45 1.33 1.27 1.23 1.16 1.18 1.20 1.27 1.39 1.56 1.61 1.57 1.57 1.66 1.84
2.00 1.89 1.82 1.80 1.69 1.56 1.47 1.44 1.48 1.56 1.58 1.53 1.52 1.61 1.68 1.65 1.67 1.72 1.79 1.95 2.14 2.04 1.82 1.59 1.55 1.48 1.46 1.44 1.51 1.31 1.31 1.25 1.21 1.25 1.27 1.29 1.35 1.51 1.58 1.51 1.41 1.33 1.33
1.69 1.56 1.49 1.48 1.49 1.45 1.43 1.47 1.46 1.49 1.54 1.45 1.39 1.38 1.38 1.34 1.40 1.44 1.55 1.67 1.84 1.97 1.86 1.52 1.46 1.51 1.52 1.41 1.56 1.40 1.35 1.30 1.25 1.44 1.59 1.53 1.50 1.67 1.80 1.77 1.57 1.43 1.39
1.48 1.40 1.32 1.27 1.26 1.29 1.30 1.34 1.32 1.27 1.22 1.19 1.15 1.14 1.16 1.22 1.30 1.29 1.33 1.46 1.68 1.87 1.92 1.57 1.44 1.51 1.65 1.60 1.61 1.53 1.42 1.38 1.41 1.78 1.96 2.15 1.91 1.81 1.91 1.89 1.79 1.58 1.44
1.31 1.27 1.17 1.09 1.05 1.04 1.05 1.06 1.09 1.10 1.10 1.04 1.05 1.10 1.10 1.14 1.20 1.25 1.31 1.37 1.52 1.76 1.93 1.83 1.60 1.61 1.67 1.66 1.71 1.67 1.44 1.29 1.35 1.80 2.08 2.38 2.33 2.09 2.09 1.93 1.78 1.60 1.48
1.16 1.10 1.07 1.04 0.97 0.96 0.93 0.90 0.93 1.00 1.01 0.96 0.99 1.04 1.10 1.23 1.23 1.24 1.31 1.34 1.45 1.59 1.88 1.94 1.74 1.71 1.77 1.80 1.92 1.78 1.59 1.55 1.28 1.53 1.95 2.28 2.44 2.47 2.53 2.38 2.07 1.71 1.49
1.11 1.08 1.06 0.98 0.93 0.89 0.88 0.87 0.88 0.92 0.94 0.93 0.98 1.03 1.09 1.22 1.29 1.34 1.34 1.38 1.43 1.57 1.76 1.93 1.87 1.83 1.91 1.96 2.00 1.94 1.79 1.64 1.46 1.37 1.80 2.27 2.60 2.63 2.79 2.87 2.56 2.09 1.69
1.05 1.04 1.03 0.96 0.91 0.86 0.82 0.82 0.83 0.86 0.95 0.96 0.95 0.95 0.98 1.10 1.20 1.19 1.11 1.16 1.33 1.57 1.65 1.84 1.87 1.86 1.90 2.00 1.95 1.74 1.67 1.61 1.45 1.35 1.56 1.94 2.63 2.94 2.98 3.02 2.88 2.37 1.89
1.06 1.03 1.00 0.95 0.89 0.74 0.77 0.79 0.80 0.85 0.91 0.92 0.92 0.91 0.85 0.84 0.83 0.85 0.90 0.96 1.11 1.40 1.74 1.94 1.90 1.84 1.75 1.73 1.78 1.72 1.72 1.72 1.65 1.35 1.32 1.58 2.15 2.94 3.18 3.12 3.00 2.38 1.82
1.04 0.97 0.91 0.92 0.88 0.79 0.74 0.69 0.74 0.83 0.90 0.95 0.99 0.97 0.76 0.65 0.75 0.82 0.87 0.92 1.04 1.23 1.55 1.91 1.99 1.76 1.72 1.69 1.77 1.75 1.81 1.86 1.73 1.40 1.45 1.68 2.02 2.70 2.87 2.85 2.74 2.09 1.65
1.01 1.01 0.97 0.96 0.95 0.80 0.72 0.66 0.71 0.77 0.88 0.91 0.92 0.95 0.95 0.87 0.82 0.91 0.97 1.04 1.15 1.28 1.40 1.52 1.84 1.65 1.45 1.48 1.60 1.66 1.77 1.80 1.70 1.50 1.54 1.81 2.04 2.48 2.46 2.54 2.42 1.92 1.54
0.97 0.94 0.94 0.95 1.00 0.91 0.77 0.70 0.66 0.73 0.83 0.84 0.81 0.81 0.81 0.83 0.91 1.08 1.19 1.38 1.48 1.58 1.50 1.65 1.83 1.77 1.63 1.58 1.47 1.57 1.83 1.87 1.78 1.62 1.62 1.86 1.99 2.08 2.19 2.27 2.02 1.80 1.51
0.91 0.87 0.86 0.90 0.93 0.85 0.71 0.60 0.57 0.64 0.78 0.82 0.85 0.83 0.76 0.71 0.83 1.01 1.25 1.56 1.70 1.76 1.62 1.73 2.00 2.04 1.87 1.87 1.85 1.76 1.91 1.96 1.89 1.82 1.60 1.69 1.86 1.85 2.05 1.99 1.81 1.68 1.59

GEFSMA_prec_meanprecacc_288.txt.gz
Total_Precipitation_Accumulation
2.55 2.63 2.67 2.74 2.56 2.53 2.48 2.17 1.89 1.98 2.08 2.03 1.78 1.74 1.80 1.79 1.85 2.05 2.29 2.21 2.09 2.24 2.54 2.75 2.90 2.93 2.85 2.83 2.82 2.83 2.79 2.78 2.76 2.60 2.33 2.12 1.97 1.92 1.94 2.00 2.00 1.96 1.90
2.85 2.88 2.92 2.93 2.79 2.80 2.72 2.45 2.26 2.40 2.36 2.30 2.04 1.92 1.91 1.96 1.96 2.07 2.25 2.25 1.99 1.90 2.16 2.57 2.84 3.03 3.12 3.13 2.97 2.82 2.82 2.81 2.83 2.67 2.49 2.28 2.11 2.01 1.94 1.95 2.00 1.98 1.92
3.10 3.15 3.21 3.14 2.93 2.85 2.86 2.78 2.65 2.62 2.55 2.34 2.21 2.19 2.15 2.00 1.93 2.12 2.24 2.26 2.13 2.02 2.11 2.26 2.46 2.76 3.17 3.36 3.26 3.10 3.01 2.99 2.89 2.74 2.64 2.49 2.29 2.11 2.01 1.96 1.95 1.94 1.91
3.07 3.32 3.37 3.17 2.96 2.86 2.97 3.07 2.93 2.86 2.83 2.74 2.49 2.25 2.16 2.12 2.03 2.07 2.08 2.15 2.28 2.18 2.23 2.19 2.25 2.45 2.78 3.09 3.32 3.37 3.28 3.16 3.04 2.90 2.82 2.68 2.53 2.29 2.11 2.06 2.00 1.94 1.91
3.19 3.40 3.49 3.46 3.17 3.12 3.21 3.07 3.25 3.10 3.08 2.90 2.53 2.34 2.10 1.94 1.98 1.96 2.03 2.04 2.07 2.11 2.15 2.17 2.23 2.30 2.51 2.80 3.06 3.25 3.31 3.26 3.06 2.85 2.83 2.84 2.68 2.43 2.28 2.20 2.09 1.99 1.92
3.33 3.53 3.55 3.61 3.47 3.47 3.62 3.54 3.52 3.34 3.09 2.92 2.54 2.32 2.06 1.82 1.77 1.80 1.80 1.81 1.80 1.79 1.87 1.93 2.09 2.10 2.24 2.43 2.79 3.08 3.46 3.56 3.32 3.08 2.97 2.90 2.71 2.45 2.27 2.25 2.20 2.12 2.04
3.88 4.05 3.92 3.86 3.66 3.59 3.65 3.60 3.45 3.36 3.20 3.13 3.02 2.65 2.18 1.77 1.64 1.56 1.63 1.69 1.64 1.59 1.69 1.83 1.88 1.90 1.96 2.03 2.21 2.56 3.19 3.51 3.44 3.26 3.17 3.06 2.85 2.63 2.43 2.36 2.33 2.29 2.19
4.51 4.40 4.31 4.04 3.83 3.67 3.50 3.42 3.33 3.23 3.03 3.02 3.05 2.95 2.53 2.17 1.77 1.42 1.57 1.62 1.60 1.66 1.67 1.62 1.64 1.63 1.61 1.73 1.87 2.17 2.56 2.83 3.14 3.35 3.32 3.12 2.95 2.80 2.67 2.56 2.51 2.46 2.41
4.38 4.23 4.12 3.93 3.80 3.63 3.44 3.39 3.33 3.25 3.10 3.07 3.09 3.19 2.96 2.45 1.97 1.64 1.53 1.55 1.62 1.69 1.69 1.64 1.57 1.56 1.57 1.64 1.70 1.92 2.20 2.31 2.59 2.87 3.09 3.03 2.93 2.93 2.89 2.86 2.81 2.76 2.70
4.10 3.94 3.94 3.84 3.67 3.48 3.33 3.09 3.04 3.13 3.23 3.08 2.97 2.77 2.63 2.40 2.26 2.00 1.76 1.65 1.62 1.62 1.64 1.61 1.52 1.57 1.62 1.73 1.87 1.91 1.97 1.98 2.13 2.27 2.42 2.57 2.65 2.75 2.84 2.80 2.85 2.93 2.96
3.83 3.59 3.55 3.45 3.26 3.07 2.95 2.81 2.74 2.80 2.90 2.89 2.84 2.72 2.62 2.46 2.24 2.12 1.95 1.80 1.75 1.64 1.59 1.61 1.61 1.62 1.67 1.70 1.77 1.80 1.84 1.81 1.89 1.94 1.99 2.13 2.30 2.46 2.61 2.73 2.82 2.97 3.14
3.63 3.35 3.05 2.97 2.91 2.72 2.47 2.41 2.41 2.39 2.47 2.54 2.61 2.55 2.40 2.32 2.22 2.21 2.10 1.94 1.89 1.78 1.70 1.68 1.63 1.59 1.62 1.57 1.51 1.66 1.59 1.58 1.64 1.73 1.77 1.83 1.93 2.03 2.19 2.38 2.64 2.85 3.00
3.15 2.89 2.66 2.55 2.46 2.37 2.22 2.14 2.13 2.01 1.99 2.05 2.07 2.20 2.21 2.10 2.00 2.06 2.17 2.09 1.93 1.80 1.72 1.64 1.50 1.43 1.43 1.48 1.55 1.55 1.41 1.36 1.32 1.33 1.40 1.56 1.69 1.78 1.82 1.93 2.12 2.39 2.60
2.62 2.40 2.30 2.14 1.93 1.77 1.70 1.73 1.78 1.75 1.73 1.73 1.70 1.88 1.98 1.96 1.93 1.92 1.97 2.16 2.13 1.90 1.77 1.61 1.48 1.41 1.39 1.40 1.48 1.36 1.28 1.24 1.17 1.19 1.22 1.30 1.42 1.60 1.69 1.65 1.63 1.70 1.87
2.01 1.92 1.86 1.83 1.72 1.60 1.51 1.48 1.52 1.61 1.61 1.55 1.54 1.64 1.69 1.67 1.70 1.75 1.82 1.97 2.16 2.06 1.87 1.65 1.61 1.55 1.51 1.47 1.54 1.33 1.32 1.27 1.21 1.27 1.28 1.31 1.37 1.53 1.63 1.59 1.47 1.36 1.36
1.70 1.58 1.53 1.51 1.52 1.48 1.45 1.50 1.49 1.51 1.57 1.48 1.42 1.41 1.40 1.36 1.42 1.46 1.57 1.69 1.87 2.00 1.89 1.56 1.50 1.56 1.56 1.43 1.59 1.42 1.37 1.31 1.25 1.45 1.60 1.54 1.51 1.68 1.84 1.85 1.63 1.47 1.41
1.49 1.41 1.36 1.32 1.30 1.33 1.33 1.36 1.34 1.29 1.25 1.21 1.18 1.16 1.18 1.24 1.32 1.32 1.36 1.49 1.70 1.90 1.94 1.60 1.47 1.56 1.68 1.63 1.65 1.56 1.44 1.39 1.42 1.78 1.97 2.16 1.92 1.82 1.94 1.96 1.84 1.62 1.47
1.33 1.29 1.19 1.14 1.11 1.09 1.08 1.08 1.11 1.12 1.11 1.06 1.07 1.13 1.13 1.16 1.22 1.29 1.34 1.40 1.54 1.79 1.95 1.85 1.64 1.64 1.70 1.68 1.75 1.69 1.46 1.30 1.36 1.82 2.09 2.39 2.35 2.10 2.11 1.99 1.82 1.63 1.51
1.20 1.13 1.10 1.08 1.03 1.01 0.96 0.93 0.96 1.03 1.03 0.98 1.01 1.07 1.13 1.27 1.25 1.27 1.33 1.37 1.48 1.62 1.90 1.96 1.77 1.75 1.81 1.84 1.97 1.81 1.62 1.57 1.29 1.55 1.97 2.30 2.45 2.48 2.54 2.40 2.10 1.74 1.52
1.15 1.10 1.09 1.02 0.97 0.93 0.92 0.90 0.91 0.95 0.96 0.96 1.00 1.07 1.12 1.25 1.32 1.37 1.37 1.41 1.48 1.62 1.79 1.95 1.90 1.88 1.95 2.00 2.03 1.96 1.83 1.67 1.48 1.38 1.82 2.28 2.60 2.63 2.80 2.88 2.57 2.11 1.71
1.07 1.06 1.06 1.00 0.95 0.89 0.85 0.85 0.85 0.88 0.97 0.99 0.97 0.97 1.01 1.13 1.24 1.22 1.15 1.20 1.38 1.61 1.67 1.86 1.91 1.94 1.95 2.03 1.96 1.76 1.69 1.64 1.48 1.37 1.57 1.95 2.63 2.95 2.98 3.02 2.89 2.38 1.90
1.10 1.06 1.03 0.99 0.93 0.77 0.80 0.83 0.82 0.87 0.92 0.94 0.94 0.93 0.87 0.87 0.87 0.89 0.93 1.00 1.15 1.43 1.76 1.97 1.93 1.91 1.80 1.75 1.79 1.74 1.75 1.75 1.68 1.38 1.34 1.59 2.15 2.94 3.19 3.12 3.00 2.38 1.82
1.08 1.02 0.95 0.95 0.93 0.84 0.78 0.73 0.77 0.84 0.91 0.97 1.01 0.98 0.78 0.68 0.79 0.85 0.90 0.95 1.07 1.25 1.56 1.93 2.02 1.81 1.75 1.71 1.78 1.78 1.84 1.88 1.74 1.42 1.47 1.69 2.02 2.70 2.88 2.85 2.75 2.10 1.65
1.04 1.05 1.01 0.99 0.99 0.87 0.77 0.70 0.73 0.79 0.90 0.93 0.94 0.96 0.97 0.88 0.84 0.93 0.99 1.06 1.17 1.30 1.41 1.53 1.85 1.66 1.47 1.50 1.61 1.69 1.81 1.83 1.72 1.52 1.56 1.83 2.05 2.49 2.47 2.54 2.43 1.92 1.55
0.99 0.96 0.96 0.97 1.03 0.96 0.83 0.73 0.68 0.74 0.84 0.85 0.82 0.82 0.82 0.83 0.92 1.10 1.21 1.39 1.50 1.60 1.51 1.67 1.84 1.78 1.64 1.59 1.49 1.60 1.87 1.92 1.81 1.66 1.64 1.88 2.02 2.09 2.20 2.27 2.02 1.81 1.52
0.93 0.90 0.89 0.93 0.96 0.88 0.74 0.62 0.59 0.65 0.78 0.82 0.86 0.83 0.77 0.72 0.85 1.03 1.27 1.57 1.71 1.77 1.63 1.74 2.02 2.05 1.88 1.88 1.87 1.79 1.95 2.01 1.92 1.86 1.64 1.73 1.89 1.87 2.06 2.00 1.82 1.69 1.60

GEFSMA_prec_meanprecacc_294.txt.gz
Total_Precipitation_Accumulation
2.60 2.67 2.70 2.77 2.59 2.56 2.51 2.20 1.92 2.00 2.10 2.05 1.81 1.76 1.82 1.81 1.87 2.07 2.31 2.23 2.13 2.30 2.62 2.84 2.98 3.01 2.97 2.96 2.93 2.93 2.86 2.84 2.80 2.64 2.37 2.15 2.00 1.95 1.99 2.05 2.06 2.01 1.95
2.90 2.92 2.95 2.95 2.81 2.82 2.75 2.49 2.30 2.43 2.39 2.32 2.07 1.94 1.93 1.98 1.98 2.09 2.27 2.27 2.02 1.94 2.21 2.64 2.92 3.12 3.22 3.23 3.07 2.92 2.89 2.87 2.89 2.72 2.52 2.31 2.15 2.06 2.00 2.01 2.06 2.04 1.98
3.14 3.19 3.24 3.17 2.96 2.88 2.90 2.82 2.70 2.67 2.58 2.36 2.23 2.22 2.17 2.02 1.95 2.14 2.25 2.27 2.15 2.05 2.16 2.33 2.54 2.84 3.24 3.44 3.35 3.19 3.09 3.05 2.96 2.79 2.68 2.52 2.33 2.18 2.07 2.02 2.00 1.99 1.98
3.10 3.35 3.40 3.22 3.01 2.91 3.02 3.11 2.98 2.91 2.86 2.76 2.50 2.28 2.20 2.15 2.06 2.09 2.09 2.16 2.29 2.20 2.27 2.24 2.34 2.51 2.85 3.19 3.43 3.48 3.37 3.24 3.11 2.96 2.87 2.74 2.61 2.39 2.19 2.13 2.05 1.99 1.96
3.22 3.42 3.52 3.50 3.22 3.18 3.26 3.12 3.30 3.16 3.11 2.92 2.54 2.37 2.12 1.96 2.00 1.97 2.03 2.04 2.09 2.13 2.17 2.21 2.28 2.36 2.58 2.90 3.17 3.36 3.43 3.37 3.14 2.92 2.90 2.90 2.76 2.54 2.37 2.27 2.15 2.05 1.98
3.35 3.55 3.57 3.63 3.50 3.52 3.68 3.60 3.59 3.41 3.14 2.96 2.56 2.34 2.07 1.83 1.78 1.81 1.81 1.82 1.82 1.81 1.89 1.97 2.13 2.14 2.27 2.49 2.87 3.18 3.57 3.67 3.41 3.19 3.10 2.97 2.78 2.54 2.36 2.32 2.25 2.17 2.09
3.92 4.08 3.95 3.88 3.69 3.63 3.70 3.67 3.53 3.44 3.27 3.19 3.06 2.67 2.19 1.78 1.65 1.57 1.64 1.71 1.66 1.61 1.70 1.85 1.90 1.92 1.98 2.08 2.27 2.63 3.27 3.60 3.54 3.39 3.33 3.15 2.91 2.70 2.51 2.43 2.38 2.32 2.23
4.55 4.44 4.35 4.08 3.87 3.72 3.56 3.48 3.41 3.32 3.11 3.10 3.11 2.98 2.55 2.18 1.78 1.43 1.58 1.64 1.62 1.68 1.69 1.64 1.65 1.65 1.62 1.74 1.89 2.22 2.61 2.90 3.23 3.45 3.50 3.22 3.02 2.90 2.77 2.64 2.56 2.50 2.44
4.43 4.28 4.17 3.99 3.87 3.69 3.49 3.44 3.39 3.33 3.18 3.13 3.14 3.22 2.98 2.46 1.98 1.65 1.54 1.56 1.63 1.70 1.71 1.65 1.59 1.58 1.58 1.65 1.71 1.94 2.25 2.37 2.68 3.01 3.27 3.12 3.00 3.02 2.98 2.93 2.87 2.81 2.74
4.15 3.98 4.00 3.91 3.74 3.54 3.39 3.14 3.09 3.19 3.30 3.13 3.00 2.79 2.65 2.42 2.27 2.01 1.76 1.66 1.63 1.63 1.65 1.62 1.53 1.58 1.63 1.74 1.88 1.92 2.00 2.04 2.21 2.43 2.58 2.66 2.72 2.81 2.90 2.87 2.91 2.99 3.01
3.86 3.62 3.59 3.50 3.30 3.12 3.00 2.85 2.77 2.84 2.94 2.92 2.86 2.74 2.64 2.47 2.25 2.13 1.95 1.80 1.76 1.65 1.60 1.63 1.62 1.63 1.68 1.71 1.78 1.82 1.88 1.88 1.97 2.05 2.10 2.21 2.37 2.52 2.66 2.78 2.88 3.03 3.20
3.65 3.37 3.07 2.99 2.93 2.74 2.51 2.44 2.44 2.42 2.49 2.56 2.63 2.56 2.40 2.32 2.22 2.21 2.10 1.94 1.90 1.79 1.71 1.70 1.67 1.63 1.67 1.60 1.54 1.70 1.65 1.66 1.72 1.82 1.85 1.89 1.99 2.09 2.24 2.43 2.70 2.90 3.06
3.17 2.91 2.68 2.56 2.47 2.38 2.24 2.17 2.16 2.03 2.01 2.07 2.09 2.21 2.21 2.11 2.00 2.07 2.17 2.09 1.94 1.82 1.74 1.67 1.57 1.50 1.49 1.53 1.59 1.60 1.46 1.43 1.39 1.41 1.46 1.60 1.74 1.83 1.87 1.98 2.17 2.43 2.65
2.64 2.42 2.33 2.16 1.94 1.78 1.71 1.76 1.81 1.77 1.75 1.75 1.72 1.89 1.98 1.96 1.93 1.92 1.98 2.16 2.13 1.92 1.80 1.65 1.55 1.49 1.47 1.46 1.53 1.40 1.32 1.30 1.25 1.25 1.26 1.33 1.45 1.63 1.72 1.69 1.67 1.75 1.91
2.04 1.95 1.88 1.84 1.74 1.61 1.52 1.49 1.54 1.64 1.64 1.57 1.56 1.65 1.70 1.68 1.70 1.75 1.82 1.97 2.16 2.07 1.89 1.68 1.66 1.62 1.58 1.55 1.61 1.37 1.35 1.32 1.28 1.31 1.31 1.33 1.39 1.55 1.66 1.62 1.51 1.43 1.41
1.74 1.61 1.56 1.52 1.53 1.49 1.46 1.51 1.50 1.54 1.59 1.50 1.44 1.43 1.41 1.37 1.42 1.46 1.57 1.70 1.87 2.00 1.90 1.58 1.53 1.60 1.61 1.50 1.66 1.48 1.40 1.37 1.31 1.50 1.63 1.57 1.52 1.69 1.86 1.87 1.68 1.54 1.47
1.53 1.43 1.37 1.33 1.31 1.34 1.33 1.37 1.35 1.31 1.27 1.24 1.20 1.18 1.20 1.25 1.33 1.32 1.36 1.49 1.71 1.91 1.95 1.61 1.49 1.59 1.72 1.66 1.68 1.59 1.47 1.44 1.47 1.84 2.02 2.20 1.94 1.83 1.95 1.99 1.92 1.69 1.54
1.36 1.30 1.20 1.15 1.13 1.09 1.08 1.09 1.12 1.13 1.13 1.08 1.10 1.15 1.15 1.18 1.23 1.29 1.35 1.41 1.56 1.81 1.97 1.88 1.65 1.68 1.73 1.70 1.77 1.72 1.49 1.34 1.40 1.87 2.15 2.44 2.37 2.11 2.12 2.03 1.94 1.75 1.60
1.22 1.15 1.10 1.09 1.03 1.02 0.97 0.94 0.97 1.04 1.04 1.01 1.04 1.10 1.15 1.29 1.26 1.28 1.35 1.39 1.51 1.65 1.93 1.99 1.79 1.77 1.84 1.86 1.99 1.84 1.65 1.59 1.33 1.60 2.02 2.34 2.48 2.49 2.55 2.48 2.23 1.88 1.63
1.16 1.11 1.09 1.02 0.97 0.94 0.94 0.93 0.92 0.96 0.98 0.98 1.03 1.10 1.15 1.27 1.34 1.38 1.38 1.44 1.52 1.65 1.83 1.98 1.92 1.90 1.96 2.01 2.04 1.98 1.85 1.70 1.52 1.43 1.86 2.32 2.63 2.65 2.81 2.93 2.70 2.25 1.86
1.08 1.07 1.06 1.01 0.96 0.90 0.86 0.88 0.89 0.91 0.99 1.01 0.99 1.00 1.05 1.16 1.26 1.25 1.17 1.24 1.42 1.64 1.70 1.88 1.93 1.96 1.96 2.04 1.97 1.77 1.70 1.66 1.50 1.40 1.59 1.97 2.66 2.97 3.00 3.06 2.96 2.47 2.03
1.11 1.07 1.03 0.99 0.94 0.78 0.82 0.85 0.85 0.92 0.97 0.98 0.97 0.96 0.91 0.91 0.90 0.92 0.96 1.03 1.18 1.46 1.79 2.00 1.96 1.93 1.82 1.76 1.80 1.75 1.76 1.76 1.70 1.40 1.36 1.61 2.17 2.96 3.20 3.14 3.04 2.42 1.87
1.09 1.02 0.96 0.96 0.94 0.85 0.80 0.74 0.79 0.88 0.96 1.02 1.06 1.04 0.83 0.72 0.82 0.88 0.93 0.98 1.10 1.28 1.60 1.96 2.04 1.83 1.77 1.73 1.79 1.79 1.85 1.89 1.76 1.43 1.48 1.71 2.04 2.72 2.89 2.86 2.78 2.13 1.67
1.05 1.06 1.02 1.01 1.01 0.88 0.79 0.71 0.75 0.82 0.93 0.96 0.98 1.01 1.02 0.93 0.88 0.96 1.02 1.09 1.20 1.32 1.44 1.56 1.87 1.68 1.48 1.53 1.64 1.71 1.82 1.84 1.74 1.54 1.56 1.84 2.06 2.50 2.48 2.55 2.44 1.95 1.58
1.00 0.97 0.98 0.99 1.05 0.99 0.85 0.75 0.71 0.77 0.87 0.88 0.85 0.84 0.84 0.87 0.97 1.14 1.24 1.42 1.53 1.62 1.54 1.70 1.86 1.80 1.66 1.62 1.54 1.65 1.91 1.95 1.83 1.68 1.65 1.89 2.03 2.10 2.20 2.28 2.03 1.82 1.55
0.94 0.92 0.91 0.94 0.97 0.90 0.76 0.64 0.62 0.68 0.81 0.85 0.88 0.86 0.79 0.75 0.88 1.06 1.30 1.59 1.73 1.79 1.66 1.78 2.06 2.08 1.90 1.91 1.92 1.84 2.00 2.07 1.96 1.88 1.65 1.74 1.92 1.90 2.08 2.01 1.83 1.70 1.62

GEFSMA_prec_meanprecacc_300.txt.gz
Total_Precipitation_Accumulation
2.66 2.75 2.80 2.86 2.69 2.65 2.60 2.28 1.99 2.06 2.16 2.10 1.85 1.80 1.86 1.85 1.91 2.10 2.34 2.26 2.17 2.36 2.68 2.91 3.06 3.10 3.06 3.08 3.08 3.07 2.96 2.91 2.85 2.68 2.41 2.19 2.04 1.99 2.03 2.09 2.09 2.04 1.98
2.96 2.99 3.03 3.04 2.89 2.90 2.83 2.57 2.37 2.50 2.44 2.37 2.12 2.00 2.00 2.03 2.03 2.13 2.31 2.31 2.05 1.97 2.25 2.70 3.00 3.21 3.28 3.30 3.17 3.06 3.05 2.97 2.96 2.79 2.57 2.35 2.18 2.09 2.04 2.05 2.09 2.07 2.01
3.18 3.24 3.30 3.22 3.04 2.96 2.97 2.90 2.77 2.73 2.64 2.42 2.29 2.27 2.22 2.07 2.00 2.19 2.30 2.31 2.18 2.07 2.18 2.36 2.59 2.90 3.30 3.50 3.42 3.28 3.21 3.15 3.05 2.89 2.75 2.57 2.36 2.21 2.10 2.05 2.04 2.03 2.01
3.14 3.39 3.45 3.27 3.08 2.98 3.08 3.19 3.05 2.97 2.92 2.82 2.55 2.32 2.24 2.20 2.09 2.12 2.12 2.18 2.32 2.23 2.29 2.27 2.37 2.55 2.88 3.23 3.49 3.56 3.46 3.33 3.19 3.04 2.94 2.79 2.65 2.41 2.21 2.16 2.10 2.04 2.02
3.25 3.46 3.56 3.56 3.30 3.26 3.33 3.18 3.36 3.22 3.17 2.97 2.59 2.40 2.15 1.99 2.03 2.00 2.06 2.07 2.11 2.15 2.20 2.23 2.30 2.38 2.61 2.93 3.20 3.42 3.50 3.44 3.23 2.99 2.96 2.96 2.82 2.59 2.42 2.33 2.22 2.12 2.05
3.39 3.59 3.61 3.67 3.54 3.57 3.74 3.68 3.67 3.48 3.20 3.01 2.61 2.38 2.11 1.85 1.80 1.84 1.83 1.85 1.85 1.84 1.92 1.99 2.14 2.15 2.29 2.51 2.90 3.21 3.63 3.74 3.49 3.28 3.17 3.04 2.84 2.59 2.42 2.39 2.33 2.25 2.17
3.97 4.15 4.00 3.92 3.73 3.67 3.74 3.72 3.59 3.50 3.32 3.23 3.11 2.72 2.23 1.81 1.67 1.58 1.66 1.73 1.68 1.63 1.72 1.86 1.92 1.94 2.00 2.09 2.29 2.66 3.31 3.66 3.60 3.46 3.41 3.23 2.98 2.76 2.57 2.49 2.45 2.41 2.30
4.62 4.50 4.41 4.13 3.93 3.78 3.61 3.54 3.47 3.38 3.16 3.14 3.16 3.05 2.61 2.22 1.80 1.44 1.59 1.65 1.63 1.69 1.70 1.64 1.66 1.67 1.65 1.79 1.92 2.24 2.65 2.95 3.29 3.51 3.56 3.29 3.09 2.95 2.83 2.69 2.62 2.55 2.49
4.49 4.35 4.25 4.05 3.93 3.75 3.55 3.50 3.45 3.40 3.25 3.19 3.18 3.28 3.04 2.52 2.01 1.67 1.55 1.57 1.65 1.72 1.72 1.66 1.59 1.58 1.60 1.69 1.74 1.97 2.28 2.40 2.72 3.06 3.35 3.20 3.06 3.09 3.06 2.99 2.93 2.87 2.79
4.21 4.05 4.08 3.98 3.81 3.62 3.45 3.19 3.15 3.26 3.37 3.19 3.05 2.84 2.69 2.45 2.31 2.03 1.78 1.67 1.64 1.64 1.66 1.62 1.54 1.58 1.64 1.76 1.90 1.94 2.01 2.05 2.24 2.49 2.67 2.73 2.78 2.90 3.01 2.94 2.97 3.04 3.05
3.90 3.65 3.63 3.56 3.37 3.18 3.06 2.91 2.84 2.91 3.00 2.97 2.91 2.79 2.67 2.50 2.28 2.17 1.99 1.83 1.77 1.66 1.61 1.64 1.63 1.64 1.68 1.72 1.80 1.84 1.88 1.89 1.99 2.10 2.16 2.28 2.44 2.63 2.78 2.86 2.94 3.07 3.23
3.69 3.40 3.10 3.03 2.98 2.79 2.55 2.50 2.48 2.46 2.54 2.62 2.68 2.61 2.45 2.37 2.27 2.26 2.14 1.98 1.93 1.80 1.72 1.72 1.68 1.64 1.67 1.61 1.54 1.71 1.66 1.67 1.73 1.85 1.91 1.94 2.05 2.22 2.36 2.52 2.77 2.96 3.10
3.20 2.94 2.71 2.60 2.51 2.41 2.28 2.22 2.21 2.07 2.05 2.13 2.15 2.26 2.25 2.16 2.05 2.11 2.21 2.12 1.96 1.84 1.76 1.69 1.59 1.52 1.50 1.54 1.60 1.61 1.47 1.45 1.40 1.44 1.54 1.65 1.79 1.93 1.96 2.07 2.24 2.49 2.71
2.67 2.46 2.37 2.19 1.97 1.81 1.75 1.79 1.85 1.81 1.79 1.80 1.77 1.94 2.02 2.01 1.97 1.95 2.01 2.19 2.16 1.95 1.83 1.68 1.57 1.51 1.48 1.48 1.56 1.41 1.33 1.32 1.26 1.28 1.33 1.39 1.51 1.70 1.79 1.75 1.72 1.78 1.94
2.09 2.00 1.92 1.87 1.76 1.63 1.55 1.52 1.57 1.67 1.67 1.61 1.60 1.70 1.75 1.72 1.73 1.77 1.85 2.00 2.20 2.12 1.94 1.72 1.70 1.65 1.61 1.57 1.63 1.39 1.37 1.35 1.31 1.33 1.35 1.37 1.44 1.59 1.69 1.66 1.53 1.44 1.41
1.78 1.65 1.59 1.55 1.55 1.51 1.48 1.53 1.53 1.57 1.63 1.53 1.47 1.47 1.47 1.42 1.48 1.51 1.62 1.73 1.91 2.05 1.94 1.62 1.57 1.62 1.63 1.53 1.70 1.51 1.45 1.43 1.37 1.53 1.66 1.60 1.56 1.72 1.88 1.89 1.70 1.55 1.48
1.55 1.45 1.39 1.35 1.32 1.35 1.34 1.38 1.36 1.32 1.29 1.25 1.21 1.20 1.23 1.29 1.38 1.37 1.41 1.53 1.75 1.95 2.00 1.65 1.52 1.61 1.75 1.70 1.73 1.66 1.55 1.56 1.55 1.88 2.04 2.22 1.97 1.85 1.97 2.01 1.93 1.71 1.54
1.38 1.32 1.21 1.16 1.13 1.10 1.08 1.10 1.13 1.14 1.14 1.09 1.11 1.16 1.17 1.21 1.27 1.33 1.39 1.44 1.59 1.85 2.01 1.91 1.69 1.71 1.77 1.74 1.81 1.77 1.58 1.47 1.50 1.94 2.19 2.47 2.39 2.13 2.14 2.04 1.95 1.76 1.61
1.23 1.16 1.11 1.10 1.04 1.03 0.97 0.95 0.97 1.04 1.05 1.01 1.05 1.11 1.16 1.31 1.30 1.33 1.39 1.43 1.54 1.68 1.97 2.03 1.82 1.82 1.88 1.89 2.02 1.87 1.70 1.67 1.42 1.70 2.09 2.39 2.50 2.51 2.56 2.49 2.24 1.89 1.66
1.17 1.12 1.10 1.03 0.98 0.94 0.94 0.93 0.93 0.97 0.98 0.98 1.04 1.11 1.16 1.28 1.36 1.42 1.43 1.50 1.57 1.70 1.87 2.01 1.96 1.96 2.02 2.05 2.07 2.00 1.89 1.74 1.58 1.52 1.94 2.37 2.66 2.68 2.83 2.94 2.70 2.26 1.90
1.09 1.08 1.07 1.02 0.97 0.90 0.87 0.88 0.89 0.91 0.99 1.01 1.00 1.01 1.06 1.17 1.27 1.27 1.19 1.28 1.47 1.70 1.76 1.93 1.98 2.02 2.02 2.08 2.00 1.79 1.74 1.70 1.56 1.46 1.66 2.02 2.69 2.99 3.01 3.07 2.97 2.50 2.09
1.12 1.08 1.04 1.00 0.94 0.78 0.82 0.85 0.86 0.92 0.98 0.99 0.98 0.97 0.93 0.93 0.91 0.93 0.98 1.05 1.21 1.50 1.83 2.04 1.99 1.97 1.86 1.80 1.83 1.78 1.79 1.80 1.75 1.46 1.42 1.65 2.20 2.98 3.21 3.15 3.06 2.45 1.95
1.10 1.03 0.97 0.97 0.95 0.85 0.80 0.75 0.79 0.89 0.97 1.04 1.08 1.06 0.84 0.73 0.84 0.89 0.94 0.99 1.12 1.31 1.63 2.00 2.08 1.87 1.82 1.78 1.84 1.84 1.90 1.94 1.80 1.48 1.53 1.75 2.06 2.74 2.90 2.87 2.79 2.16 1.73
1.06 1.07 1.04 1.02 1.01 0.89 0.80 0.72 0.76 0.83 0.94 0.97 0.99 1.03 1.05 0.95 0.90 0.99 1.04 1.12 1.23 1.35 1.46 1.58 1.90 1.73 1.55 1.59 1.71 1.77 1.88 1.91 1.79 1.58 1.61 1.89 2.08 2.53 2.50 2.56 2.45 1.98 1.63
1.01 0.99 0.99 1.00 1.06 1.00 0.86 0.76 0.72 0.77 0.88 0.89 0.86 0.86 0.86 0.89 0.99 1.16 1.27 1.46 1.56 1.66 1.56 1.71 1.88 1.83 1.69 1.66 1.58 1.70 1.98 2.02 1.89 1.72 1.70 1.94 2.07 2.14 2.24 2.31 2.05 1.85 1.59
0.97 0.95 0.93 0.96 0.99 0.92 0.78 0.66 0.63 0.69 0.83 0.87 0.90 0.88 0.81 0.76 0.90 1.08 1.32 1.63 1.76 1.83 1.69 1.80 2.08 2.10 1.93 1.94 1.95 1.88 2.07 2.15 2.03 1.94 1.69 1.78 1.96 1.93 2.11 2.04 1.86 1.73 1.65

GEFSMA_prec_meanprecacc_306.txt.gz
Total_Precipitation_Accumulation
2.76 2.85 2.90 2.97 2.79 2.72 2.67 2.36 2.05 2.11 2.19 2.12 1.87 1.82 1.87 1.88 1.96 2.15 2.40 2.32 2.19 2.37 2.70 2.94 3.10 3.14 3.11 3.14 3.14 3.13 3.01 2.96 2.91 2.74 2.46 2.24 2.09 2.04 2.09 2.15 2.15 2.08 2.02
3.04 3.07 3.14 3.15 3.00 2.98 2.90 2.64 2.43 2.54 2.48 2.40 2.15 2.03 2.02 2.07 2.08 2.18 2.37 2.37 2.08 1.98 2.27 2.73 3.04 3.25 3.32 3.35 3.24 3.13 3.11 3.03 3.01 2.84 2.61 2.39 2.22 2.13 2.08 2.08 2.12 2.10 2.04
3.25 3.31 3.40 3.32 3.13 3.05 3.05 2.97 2.83 2.78 2.68 2.47 2.33 2.32 2.27 2.12 2.05 2.24 2.36 2.37 2.23 2.11 2.21 2.40 2.63 2.94 3.34 3.55 3.47 3.34 3.27 3.20 3.09 2.93 2.78 2.60 2.39 2.23 2.12 2.07 2.06 2.06 2.04
3.21 3.46 3.53 3.36 3.17 3.06 3.16 3.27 3.11 3.01 2.96 2.87 2.62 2.38 2.29 2.25 2.15 2.17 2.16 2.23 2.39 2.29 2.33 2.29 2.39 2.58 2.92 3.26 3.53 3.61 3.52 3.38 3.24 3.08 2.97 2.83 2.69 2.44 2.24 2.18 2.12 2.06 2.05
3.31 3.53 3.62 3.63 3.37 3.33 3.41 3.26 3.43 3.28 3.24 3.04 2.64 2.46 2.20 2.04 2.08 2.04 2.10 2.11 2.17 2.20 2.25 2.25 2.32 2.40 2.63 2.95 3.23 3.44 3.53 3.48 3.27 3.04 2.99 2.99 2.85 2.63 2.45 2.36 2.24 2.14 2.07
3.45 3.65 3.67 3.73 3.60 3.63 3.81 3.76 3.76 3.57 3.26 3.06 2.64 2.42 2.15 1.90 1.85 1.89 1.89 1.90 1.90 1.88 1.95 2.02 2.18 2.17 2.30 2.52 2.92 3.23 3.65 3.77 3.52 3.31 3.21 3.07 2.89 2.64 2.46 2.42 2.36 2.29 2.20
4.04 4.23 4.06 4.00 3.80 3.73 3.80 3.79 3.67 3.58 3.38 3.29 3.18 2.79 2.29 1.87 1.72 1.62 1.70 1.77 1.73 1.67 1.76 1.90 1.95 1.97 2.02 2.11 2.30 2.68 3.33 3.69 3.63 3.49 3.44 3.26 3.01 2.80 2.60 2.53 2.50 2.46 2.36
4.68 4.56 4.48 4.20 3.98 3.85 3.69 3.62 3.54 3.44 3.22 3.21 3.25 3.13 2.69 2.31 1.86 1.48 1.62 1.67 1.66 1.72 1.73 1.66 1.68 1.69 1.67 1.81 1.94 2.26 2.67 2.97 3.31 3.54 3.59 3.32 3.11 2.98 2.86 2.72 2.65 2.60 2.55
4.54 4.40 4.32 4.13 3.99 3.82 3.63 3.58 3.52 3.46 3.31 3.26 3.25 3.36 3.13 2.61 2.08 1.73 1.59 1.60 1.68 1.75 1.73 1.66 1.60 1.59 1.61 1.70 1.77 2.00 2.30 2.42 2.74 3.08 3.38 3.22 3.08 3.11 3.08 3.02 2.96 2.91 2.83
4.24 4.09 4.14 4.04 3.88 3.69 3.52 3.25 3.22 3.32 3.43 3.24 3.11 2.90 2.75 2.52 2.38 2.10 1.83 1.72 1.68 1.66 1.67 1.63 1.54 1.59 1.65 1.77 1.92 1.96 2.03 2.07 2.25 2.51 2.70 2.76 2.80 2.92 3.03 2.97 3.00 3.08 3.09
3.94 3.69 3.68 3.61 3.43 3.24 3.11 2.96 2.90 2.95 3.06 3.02 2.97 2.86 2.74 2.56 2.34 2.25 2.06 1.89 1.82 1.69 1.63 1.65 1.64 1.64 1.70 1.73 1.81 1.85 1.90 1.90 2.00 2.12 2.19 2.31 2.46 2.65 2.82 2.90 2.98 3.12 3.27
3.73 3.45 3.15 3.08 3.01 2.84 2.61 2.55 2.54 2.52 2.61 2.67 2.74 2.67 2.51 2.43 2.35 2.35 2.22 2.05 1.98 1.85 1.75 1.73 1.70 1.65 1.68 1.61 1.55 1.72 1.68 1.69 1.74 1.85 1.93 1.98 2.08 2.24 2.40 2.57 2.83 3.03 3.15
3.24 2.99 2.78 2.65 2.55 2.46 2.33 2.26 2.27 2.14 2.10 2.18 2.20 2.31 2.30 2.22 2.11 2.19 2.28 2.18 2.00 1.88 1.80 1.72 1.60 1.54 1.51 1.55 1.61 1.62 1.48 1.45 1.41 1.45 1.55 1.68 1.82 1.95 2.00 2.12 2.29 2.53 2.75
2.71 2.49 2.42 2.23 2.00 1.84 1.78 1.84 1.89 1.86 1.84 1.84 1.81 2.00 2.08 2.05 2.01 2.00 2.06 2.24 2.21 2.00 1.88 1.72 1.60 1.53 1.49 1.49 1.57 1.42 1.33 1.32 1.27 1.29 1.33 1.40 1.55 1.75 1.82 1.79 1.76 1.81 1.96
2.13 2.04 1.96 1.91 1.79 1.67 1.59 1.57 1.62 1.71 1.72 1.65 1.65 1.76 1.79 1.76 1.78 1.82 1.89 2.06 2.27 2.19 1.99 1.77 1.73 1.66 1.63 1.59 1.66 1.41 1.39 1.36 1.32 1.34 1.36 1.38 1.48 1.66 1.74 1.70 1.57 1.47 1.44
1.83 1.70 1.62 1.59 1.59 1.54 1.51 1.57 1.56 1.60 1.67 1.59 1.53 1.52 1.51 1.46 1.53 1.57 1.66 1.79 1.99 2.14 2.01 1.67 1.61 1.65 1.66 1.55 1.72 1.53 1.47 1.46 1.40 1.55 1.67 1.62 1.61 1.79 1.92 1.93 1.75 1.59 1.50
1.60 1.49 1.41 1.37 1.35 1.37 1.36 1.41 1.39 1.35 1.32 1.29 1.24 1.22 1.25 1.32 1.43 1.43 1.46 1.60 1.81 2.02 2.08 1.70 1.56 1.65 1.79 1.74 1.77 1.69 1.59 1.60 1.58 1.91 2.06 2.25 2.03 1.93 2.02 2.05 1.98 1.75 1.57
1.41 1.34 1.23 1.19 1.15 1.12 1.11 1.12 1.15 1.16 1.16 1.12 1.13 1.18 1.19 1.23 1.30 1.38 1.44 1.50 1.66 1.92 2.08 1.98 1.75 1.77 1.82 1.79 1.85 1.81 1.62 1.53 1.57 1.99 2.22 2.51 2.45 2.19 2.20 2.09 1.99 1.80 1.64
1.25 1.18 1.13 1.11 1.06 1.05 1.00 0.97 0.99 1.06 1.06 1.02 1.06 1.12 1.18 1.33 1.33 1.37 1.44 1.47 1.59 1.73 2.04 2.10 1.89 1.89 1.95 1.95 2.07 1.91 1.73 1.72 1.47 1.78 2.17 2.48 2.58 2.57 2.63 2.53 2.29 1.94 1.70
1.20 1.15 1.13 1.05 1.00 0.96 0.96 0.94 0.94 0.98 1.00 1.00 1.05 1.12 1.17 1.30 1.38 1.45 1.46 1.54 1.62 1.76 1.95 2.09 2.03 2.02 2.08 2.12 2.14 2.06 1.94 1.79 1.62 1.57 2.01 2.43 2.72 2.75 2.89 2.99 2.75 2.30 1.94
1.11 1.10 1.10 1.05 1.00 0.92 0.88 0.90 0.91 0.93 1.01 1.03 1.01 1.02 1.07 1.17 1.28 1.28 1.21 1.31 1.50 1.75 1.82 2.00 2.06 2.09 2.09 2.15 2.05 1.84 1.79 1.75 1.60 1.51 1.72 2.07 2.74 3.05 3.07 3.12 3.02 2.54 2.11
1.15 1.11 1.07 1.03 0.97 0.79 0.84 0.87 0.87 0.94 1.00 1.00 1.00 0.98 0.94 0.93 0.91 0.93 0.98 1.06 1.23 1.53 1.88 2.10 2.06 2.04 1.93 1.87 1.89 1.84 1.86 1.86 1.81 1.52 1.49 1.73 2.28 3.05 3.26 3.19 3.09 2.47 1.96
1.15 1.08 1.02 1.02 0.98 0.88 0.83 0.77 0.81 0.91 1.00 1.06 1.11 1.08 0.85 0.74 0.85 0.90 0.95 1.00 1.13 1.31 1.64 2.03 2.12 1.92 1.87 1.83 1.90 1.91 1.97 2.00 1.85 1.54 1.60 1.82 2.14 2.81 2.95 2.90 2.81 2.18 1.74
1.12 1.13 1.09 1.07 1.06 0.92 0.82 0.74 0.77 0.84 0.96 0.99 1.01 1.05 1.06 0.97 0.90 0.99 1.06 1.14 1.26 1.37 1.47 1.59 1.93 1.78 1.60 1.65 1.77 1.84 1.97 2.00 1.88 1.66 1.69 1.96 2.16 2.59 2.55 2.60 2.48 2.02 1.67
1.09 1.06 1.04 1.05 1.11 1.04 0.88 0.77 0.72 0.78 0.89 0.91 0.87 0.87 0.87 0.91 1.00 1.17 1.28 1.49 1.61 1.70 1.57 1.72 1.90 1.86 1.72 1.69 1.62 1.75 2.05 2.11 1.97 1.79 1.78 2.04 2.15 2.22 2.31 2.36 2.09 1.88 1.61
1.06 1.03 1.00 1.03 1.04 0.97 0.81 0.68 0.64 0.70 0.84 0.89 0.93 0.89 0.82 0.77 0.91 1.09 1.34 1.66 1.81 1.88 1.73 1.83 2.10 2.13 1.96 1.97 1.97 1.92 2.13 2.22 2.11 2.02 1.76 1.87 2.04 2.01 2.18 2.10 1.91 1.76 1.68

GEFSMA_prec_meanprecacc_312.txt.gz
Total_Precipitation_Accumulation
2.82 2.90 2.94 3.02 2.83 2.75 2.69 2.38 2.07 2.14 2.22 2.16 1.89 1.84 1.89 1.90 2.02 2.25 2.52 2.44 2.27 2.42 2.75 3.00 3.16 3.19 3.15 3.18 3.19 3.17 3.04 2.99 2.93 2.77 2.49 2.26 2.11 2.06 2.11 2.23 2.23 2.14 2.07
3.12 3.16 3.21 3.21 3.03 3.01 2.94 2.66 2.45 2.56 2.50 2.43 2.17 2.05 2.03 2.09 2.14 2.29 2.52 2.52 2.18 2.05 2.32 2.77 3.09 3.29 3.37 3.41 3.30 3.18 3.15 3.07 3.04 2.87 2.65 2.42 2.24 2.15 2.10 2.12 2.19 2.16 2.07
3.33 3.41 3.48 3.38 3.16 3.08 3.08 3.00 2.86 2.80 2.70 2.49 2.36 2.34 2.29 2.15 2.10 2.31 2.47 2.48 2.31 2.17 2.27 2.44 2.68 2.98 3.39 3.61 3.53 3.40 3.31 3.24 3.13 2.96 2.82 2.63 2.41 2.25 2.14 2.09 2.09 2.10 2.07
3.24 3.52 3.60 3.42 3.21 3.09 3.20 3.32 3.16 3.05 3.00 2.91 2.65 2.42 2.32 2.29 2.19 2.22 2.22 2.28 2.43 2.33 2.38 2.34 2.44 2.63 2.97 3.31 3.57 3.65 3.55 3.41 3.28 3.13 3.01 2.86 2.71 2.46 2.25 2.20 2.14 2.09 2.07
3.36 3.58 3.69 3.69 3.41 3.36 3.45 3.31 3.48 3.33 3.29 3.09 2.68 2.51 2.25 2.10 2.15 2.10 2.15 2.14 2.19 2.24 2.29 2.30 2.36 2.44 2.67 2.98 3.25 3.47 3.55 3.51 3.30 3.08 3.03 3.02 2.88 2.65 2.47 2.38 2.26 2.16 2.09
3.52 3.71 3.71 3.78 3.66 3.69 3.87 3.81 3.81 3.62 3.32 3.11 2.70 2.49 2.24 1.99 1.92 1.95 1.92 1.93 1.93 1.92 2.00 2.06 2.20 2.19 2.33 2.56 2.95 3.26 3.69 3.80 3.55 3.34 3.24 3.10 2.92 2.67 2.49 2.45 2.39 2.31 2.22
4.11 4.29 4.09 4.04 3.86 3.80 3.87 3.86 3.73 3.64 3.43 3.35 3.24 2.87 2.39 1.98 1.82 1.68 1.72 1.79 1.75 1.71 1.80 1.94 1.98 1.99 2.04 2.12 2.33 2.71 3.37 3.71 3.65 3.51 3.47 3.30 3.04 2.81 2.62 2.55 2.53 2.50 2.39
4.75 4.62 4.52 4.24 4.03 3.92 3.78 3.69 3.60 3.50 3.27 3.27 3.31 3.20 2.76 2.39 1.93 1.53 1.65 1.70 1.68 1.74 1.75 1.68 1.71 1.71 1.69 1.83 1.95 2.27 2.70 2.99 3.34 3.57 3.62 3.35 3.14 2.99 2.87 2.74 2.67 2.62 2.58
4.60 4.45 4.36 4.17 4.03 3.87 3.69 3.64 3.58 3.50 3.35 3.30 3.30 3.40 3.19 2.67 2.14 1.77 1.63 1.64 1.70 1.76 1.74 1.68 1.62 1.60 1.62 1.71 1.78 2.01 2.32 2.44 2.77 3.12 3.41 3.25 3.11 3.13 3.09 3.03 2.97 2.92 2.85
4.28 4.13 4.16 4.08 3.93 3.73 3.56 3.29 3.27 3.36 3.47 3.28 3.15 2.94 2.78 2.55 2.41 2.14 1.88 1.77 1.72 1.68 1.68 1.64 1.55 1.59 1.65 1.78 1.93 1.97 2.05 2.10 2.28 2.54 2.73 2.79 2.82 2.94 3.05 2.98 3.02 3.10 3.10
3.97 3.72 3.70 3.65 3.46 3.26 3.14 2.99 2.93 2.99 3.09 3.05 3.01 2.89 2.77 2.59 2.37 2.28 2.09 1.92 1.85 1.72 1.64 1.65 1.64 1.65 1.70 1.74 1.82 1.87 1.92 1.93 2.02 2.13 2.22 2.33 2.48 2.68 2.84 2.92 3.01 3.14 3.29
3.76 3.47 3.17 3.11 3.05 2.87 2.64 2.57 2.56 2.55 2.64 2.71 2.77 2.71 2.55 2.47 2.41 2.41 2.25 2.07 1.99 1.87 1.76 1.74 1.70 1.65 1.69 1.63 1.57 1.74 1.71 1.71 1.76 1.86 1.94 1.99 2.09 2.27 2.42 2.60 2.86 3.06 3.19
3.25 3.01 2.80 2.68 2.58 2.49 2.36 2.28 2.29 2.17 2.14 2.21 2.23 2.35 2.36 2.27 2.16 2.24 2.31 2.20 2.01 1.89 1.81 1.73 1.62 1.55 1.51 1.57 1.63 1.64 1.50 1.47 1.42 1.46 1.55 1.68 1.83 1.97 2.02 2.15 2.32 2.57 2.79
2.73 2.52 2.44 2.26 2.03 1.88 1.82 1.87 1.93 1.89 1.87 1.86 1.84 2.03 2.12 2.10 2.05 2.05 2.09 2.26 2.21 2.00 1.89 1.74 1.61 1.55 1.51 1.51 1.60 1.46 1.36 1.34 1.28 1.30 1.34 1.41 1.56 1.76 1.84 1.82 1.79 1.85 2.00
2.15 2.06 1.98 1.92 1.82 1.70 1.62 1.60 1.66 1.74 1.74 1.68 1.68 1.79 1.82 1.79 1.80 1.85 1.93 2.09 2.29 2.20 2.01 1.79 1.74 1.68 1.64 1.61 1.70 1.44 1.41 1.38 1.33 1.35 1.36 1.39 1.48 1.67 1.75 1.72 1.60 1.50 1.47
1.86 1.72 1.64 1.60 1.60 1.56 1.53 1.59 1.58 1.62 1.69 1.61 1.56 1.54 1.53 1.48 1.56 1.59 1.69 1.81 2.00 2.15 2.03 1.68 1.63 1.67 1.69 1.58 1.76 1.56 1.50 1.48 1.41 1.56 1.67 1.63 1.62 1.80 1.94 1.95 1.77 1.60 1.53
1.63 1.52 1.43 1.38 1.35 1.38 1.37 1.42 1.40 1.36 1.34 1.31 1.25 1.23 1.26 1.33 1.44 1.45 1.48 1.61 1.83 2.04 2.10 1.72 1.58 1.68 1.83 1.78 1.82 1.73 1.61 1.61 1.60 1.92 2.07 2.26 2.04 1.95 2.03 2.06 1.99 1.76 1.59
1.44 1.38 1.26 1.20 1.16 1.13 1.12 1.12 1.15 1.17 1.17 1.12 1.14 1.19 1.20 1.23 1.31 1.38 1.45 1.51 1.67 1.93 2.09 1.99 1.76 1.79 1.86 1.83 1.90 1.85 1.65 1.56 1.60 2.02 2.25 2.53 2.47 2.21 2.21 2.10 2.00 1.81 1.65
1.29 1.22 1.15 1.12 1.07 1.06 1.00 0.97 0.99 1.06 1.06 1.03 1.08 1.13 1.18 1.33 1.34 1.37 1.44 1.48 1.59 1.73 2.05 2.10 1.90 1.90 1.96 1.97 2.12 1.95 1.77 1.75 1.51 1.81 2.22 2.53 2.61 2.61 2.67 2.55 2.31 1.96 1.71
1.25 1.18 1.15 1.07 1.01 0.97 0.96 0.94 0.94 0.99 1.01 1.01 1.07 1.14 1.19 1.31 1.39 1.45 1.46 1.54 1.62 1.77 1.96 2.10 2.04 2.04 2.10 2.15 2.18 2.10 1.97 1.83 1.66 1.59 2.04 2.45 2.76 2.81 2.94 3.03 2.78 2.33 1.96
1.16 1.15 1.14 1.07 1.03 0.95 0.90 0.91 0.92 0.93 1.02 1.03 1.02 1.03 1.08 1.18 1.29 1.29 1.21 1.31 1.51 1.76 1.83 2.02 2.07 2.11 2.10 2.17 2.08 1.86 1.81 1.78 1.64 1.54 1.74 2.09 2.77 3.08 3.11 3.17 3.07 2.59 2.15
1.23 1.19 1.13 1.08 1.01 0.81 0.86 0.88 0.88 0.94 1.00 1.01 1.01 1.00 0.96 0.94 0.92 0.94 0.98 1.06 1.23 1.53 1.88 2.12 2.08 2.06 1.95 1.89 1.91 1.86 1.88 1.90 1.84 1.55 1.51 1.75 2.30 3.08 3.30 3.23 3.14 2.54 2.01
1.24 1.17 1.11 1.10 1.02 0.91 0.88 0.80 0.83 0.93 1.02 1.08 1.13 1.09 0.87 0.75 0.86 0.91 0.96 1.00 1.13 1.32 1.66 2.05 2.14 1.93 1.88 1.85 1.92 1.93 1.99 2.02 1.87 1.57 1.64 1.85 2.17 2.85 3.00 2.96 2.88 2.25 1.79
1.23 1.24 1.20 1.16 1.13 0.99 0.89 0.78 0.80 0.87 0.99 1.02 1.03 1.06 1.07 0.98 0.91 1.00 1.07 1.14 1.26 1.38 1.49 1.61 1.95 1.79 1.60 1.66 1.79 1.86 1.99 2.03 1.91 1.70 1.74 2.01 2.20 2.65 2.62 2.66 2.56 2.08 1.71
1.19 1.17 1.15 1.15 1.20 1.12 0.96 0.83 0.77 0.81 0.92 0.93 0.89 0.88 0.88 0.91 1.01 1.18 1.29 1.50 1.62 1.72 1.60 1.75 1.91 1.87 1.73 1.69 1.63 1.78 2.08 2.15 2.01 1.83 1.82 2.09 2.20 2.29 2.38 2.43 2.16 1.95 1.66
1.18 1.14 1.12 1.14 1.13 1.03 0.86 0.73 0.70 0.73 0.87 0.92 0.95 0.91 0.83 0.78 0.93 1.11 1.35 1.67 1.83 1.90 1.75 1.85 2.11 2.14 1.97 1.98 1.98 1.93 2.16 2.25 2.15 2.05 1.80 1.91 2.07 2.07 2.25 2.17 1.98 1.82 1.73

GEFSMA_prec_meanprecacc_318.txt.gz
Total_Precipitation_Accumulation
2.85 2.93 2.97 3.05 2.86 2.77 2.70 2.40 2.09 2.16 2.24 2.18 1.91 1.85 1.90 1.91 2.03 2.26 2.54 2.49 2.37 2.51 2.83 3.08 3.26 3.30 3.25 3.26 3.26 3.23 3.10 3.03 2.97 2.79 2.51 2.28 2.12 2.08 2.13 2.25 2.25 2.16 2.09
3.15 3.21 3.27 3.26 3.07 3.05 2.98 2.71 2.48 2.58 2.51 2.45 2.20 2.06 2.05 2.10 2.16 2.33 2.56 2.58 2.28 2.13 2.41 2.88 3.20 3.41 3.47 3.50 3.37 3.23 3.19 3.11 3.09 2.91 2.68 2.44 2.26 2.17 2.12 2.14 2.22 2.19 2.10
3.36 3.46 3.56 3.44 3.22 3.13 3.13 3.06 2.90 2.84 2.73 2.52 2.39 2.36 2.31 2.17 2.14 2.37 2.55 2.60 2.42 2.28 2.37 2.54 2.78 3.09 3.49 3.71 3.61 3.47 3.37 3.30 3.18 3.01 2.86 2.66 2.45 2.28 2.17 2.13 2.13 2.14 2.10
3.29 3.57 3.66 3.48 3.25 3.13 3.23 3.36 3.21 3.10 3.04 2.95 2.69 2.46 2.36 2.31 2.21 2.26 2.29 2.39 2.52 2.43 2.49 2.45 2.55 2.74 3.08 3.41 3.67 3.73 3.62 3.47 3.33 3.18 3.07 2.90 2.75 2.51 2.31 2.25 2.19 2.14 2.11
3.43 3.64 3.73 3.73 3.45 3.40 3.49 3.36 3.53 3.37 3.33 3.13 2.72 2.56 2.32 2.15 2.18 2.14 2.21 2.20 2.25 2.30 2.36 2.40 2.51 2.57 2.78 3.10 3.37 3.56 3.63 3.58 3.37 3.14 3.09 3.06 2.91 2.69 2.50 2.40 2.29 2.19 2.12
3.59 3.77 3.76 3.81 3.68 3.72 3.91 3.86 3.85 3.66 3.35 3.16 2.74 2.53 2.28 2.03 1.95 1.99 1.97 1.96 1.95 1.94 2.02 2.10 2.27 2.27 2.40 2.64 3.02 3.33 3.77 3.87 3.62 3.40 3.29 3.14 2.95 2.70 2.51 2.47 2.42 2.35 2.27
4.17 4.36 4.15 4.08 3.90 3.85 3.91 3.90 3.77 3.67 3.47 3.39 3.28 2.90 2.42 2.02 1.86 1.72 1.74 1.81 1.76 1.72 1.81 1.96 2.01 2.02 2.06 2.15 2.36 2.77 3.45 3.79 3.72 3.57 3.53 3.35 3.08 2.84 2.64 2.57 2.55 2.53 2.44
4.79 4.68 4.59 4.29 4.09 3.97 3.82 3.73 3.65 3.55 3.31 3.30 3.34 3.25 2.82 2.46 2.00 1.57 1.67 1.71 1.69 1.75 1.76 1.70 1.73 1.73 1.70 1.84 1.96 2.30 2.74 3.04 3.40 3.63 3.68 3.40 3.19 3.02 2.88 2.75 2.69 2.65 2.61
4.64 4.50 4.41 4.22 4.09 3.92 3.74 3.70 3.63 3.55 3.39 3.33 3.35 3.47 3.25 2.72 2.20 1.81 1.66 1.65 1.71 1.77 1.75 1.70 1.63 1.62 1.63 1.72 1.78 2.03 2.34 2.47 2.81 3.17 3.45 3.29 3.14 3.16 3.11 3.05 2.99 2.94 2.87
4.31 4.15 4.19 4.12 3.99 3.79 3.61 3.34 3.32 3.41 3.53 3.33 3.21 3.00 2.85 2.60 2.45 2.18 1.92 1.79 1.72 1.69 1.69 1.65 1.55 1.60 1.66 1.78 1.94 1.98 2.06 2.12 2.31 2.58 2.76 2.82 2.85 2.96 3.07 3.01 3.04 3.12 3.12
4.00 3.74 3.72 3.68 3.50 3.32 3.19 3.03 2.98 3.05 3.15 3.11 3.07 2.96 2.83 2.64 2.41 2.30 2.12 1.93 1.86 1.73 1.65 1.66 1.65 1.65 1.71 1.75 1.83 1.87 1.93 1.94 2.04 2.16 2.24 2.36 2.51 2.70 2.87 2.96 3.04 3.17 3.31
3.79 3.50 3.19 3.12 3.07 2.91 2.69 2.63 2.63 2.62 2.70 2.76 2.83 2.75 2.59 2.50 2.43 2.42 2.27 2.08 2.00 1.87 1.76 1.74 1.71 1.66 1.69 1.63 1.57 1.75 1.72 1.72 1.78 1.89 1.96 2.00 2.11 2.29 2.45 2.64 2.91 3.10 3.23
3.29 3.04 2.83 2.70 2.61 2.53 2.42 2.35 2.35 2.23 2.19 2.25 2.26 2.38 2.38 2.29 2.18 2.26 2.33 2.21 2.02 1.90 1.81 1.73 1.62 1.55 1.52 1.58 1.64 1.65 1.52 1.50 1.45 1.49 1.57 1.69 1.84 1.98 2.04 2.18 2.37 2.62 2.84
2.76 2.54 2.47 2.28 2.07 1.93 1.87 1.93 1.98 1.92 1.89 1.88 1.85 2.05 2.14 2.11 2.06 2.06 2.12 2.28 2.23 2.01 1.90 1.75 1.62 1.55 1.51 1.53 1.63 1.50 1.39 1.38 1.33 1.33 1.37 1.42 1.57 1.77 1.85 1.84 1.81 1.89 2.05
2.19 2.10 2.01 1.95 1.86 1.74 1.67 1.65 1.69 1.75 1.75 1.69 1.70 1.80 1.83 1.80 1.81 1.86 1.95 2.11 2.31 2.21 2.01 1.80 1.75 1.68 1.65 1.62 1.72 1.48 1.45 1.42 1.36 1.39 1.39 1.41 1.49 1.68 1.75 1.73 1.60 1.51 1.50
1.89 1.75 1.68 1.63 1.64 1.59 1.56 1.62 1.61 1.63 1.70 1.62 1.57 1.55 1.54 1.49 1.57 1.61 1.71 1.83 2.02 2.16 2.03 1.68 1.63 1.68 1.70 1.59 1.77 1.58 1.52 1.50 1.44 1.59 1.70 1.64 1.63 1.80 1.94 1.96 1.77 1.61 1.55
1.65 1.55 1.47 1.41 1.37 1.40 1.40 1.44 1.42 1.38 1.35 1.31 1.26 1.24 1.27 1.34 1.45 1.46 1.50 1.64 1.85 2.05 2.11 1.72 1.58 1.69 1.83 1.79 1.83 1.74 1.62 1.63 1.61 1.94 2.08 2.27 2.05 1.96 2.04 2.07 2.00 1.76 1.60
1.48 1.41 1.29 1.22 1.18 1.15 1.14 1.14 1.17 1.19 1.18 1.13 1.14 1.20 1.20 1.24 1.32 1.40 1.46 1.52 1.68 1.94 2.11 2.00 1.77 1.80 1.87 1.84 1.91 1.87 1.66 1.57 1.61 2.04 2.26 2.54 2.49 2.22 2.22 2.11 2.02 1.82 1.66
1.32 1.26 1.20 1.16 1.10 1.08 1.03 0.99 1.00 1.07 1.08 1.04 1.08 1.14 1.19 1.35 1.35 1.39 1.46 1.49 1.61 1.75 2.07 2.11 1.91 1.91 1.97 1.98 2.13 1.97 1.79 1.77 1.52 1.82 2.23 2.54 2.62 2.62 2.69 2.57 2.32 1.97 1.72
1.27 1.22 1.20 1.12 1.06 1.01 0.99 0.97 0.96 1.00 1.02 1.02 1.08 1.15 1.20 1.33 1.41 1.46 1.47 1.55 1.64 1.78 1.97 2.12 2.06 2.05 2.11 2.16 2.19 2.11 1.98 1.84 1.66 1.60 2.04 2.46 2.77 2.82 2.95 3.04 2.80 2.35 1.97
1.18 1.18 1.18 1.11 1.08 1.00 0.93 0.93 0.93 0.95 1.03 1.04 1.02 1.04 1.09 1.20 1.30 1.30 1.22 1.32 1.52 1.77 1.84 2.04 2.09 2.12 2.11 2.18 2.08 1.87 1.82 1.78 1.64 1.55 1.75 2.10 2.77 3.09 3.12 3.20 3.10 2.62 2.18
1.25 1.22 1.17 1.12 1.04 0.84 0.89 0.91 0.90 0.96 1.01 1.02 1.02 1.01 0.97 0.96 0.94 0.96 1.01 1.08 1.25 1.55 1.90 2.14 2.10 2.07 1.97 1.90 1.92 1.87 1.88 1.90 1.84 1.55 1.52 1.75 2.31 3.09 3.30 3.23 3.16 2.56 2.04
1.26 1.20 1.14 1.13 1.05 0.94 0.92 0.84 0.86 0.95 1.03 1.09 1.13 1.10 0.88 0.77 0.88 0.94 0.99 1.04 1.16 1.35 1.68 2.07 2.16 1.95 1.89 1.86 1.93 1.93 1.99 2.02 1.88 1.58 1.64 1.86 2.18 2.86 3.01 2.97 2.89 2.25 1.80
1.25 1.25 1.22 1.19 1.16 1.02 0.93 0.81 0.84 0.90 1.02 1.03 1.04 1.07 1.08 0.99 0.93 1.03 1.09 1.17 1.28 1.40 1.51 1.63 1.98 1.81 1.61 1.66 1.80 1.87 1.99 2.04 1.92 1.71 1.75 2.02 2.21 2.66 2.63 2.68 2.57 2.10 1.72
1.21 1.18 1.16 1.17 1.22 1.16 1.01 0.87 0.81 0.84 0.94 0.95 0.91 0.90 0.90 0.93 1.03 1.21 1.32 1.53 1.64 1.73 1.62 1.76 1.94 1.88 1.73 1.70 1.64 1.78 2.09 2.16 2.02 1.84 1.83 2.12 2.24 2.32 2.41 2.45 2.19 1.98 1.69
1.20 1.15 1.13 1.16 1.15 1.06 0.89 0.76 0.74 0.75 0.89 0.93 0.97 0.93 0.85 0.81 0.95 1.14 1.37 1.69 1.85 1.91 1.76 1.86 2.13 2.15 1.97 1.98 1.98 1.94 2.16 2.26 2.16 2.06 1.80 1.92 2.10 2.11 2.30 2.21 2.02 1.86 1.77